| time (UTC) | temp F | wind direction | speed MPH | gust MPH | rain 1hr in | rain 24hr in | rain mn in | humidity % | barometer mb |
| 20260507184544 | 62 | 227 | 8.0 | 12.0 | 0.00 | 0.01 | 0.00 | 90 | 1017.1 |
| 20260507183051 | 62 | 242 | 9.0 | 11.0 | 0.00 | 0.01 | 0.00 | 90 | 1017.2 |
| 20260507181542 | 62 | 233 | 6.0 | 9.0 | 0.00 | 0.01 | 0.00 | 89 | 1017.3 |
| 20260507180048 | 62 | 248 | 7.0 | 10.0 | 0.00 | 0.01 | 0.00 | 89 | 1017.2 |
| 20260507174540 | 62 | 239 | 8.0 | 10.0 | 0.00 | 0.02 | 0.00 | 89 | 1017.3 |
| 20260507173053 | 62 | 233 | 4.0 | 7.0 | 0.00 | 0.02 | 0.00 | 89 | 1017.2 |
| 20260507171537 | 62 | 247 | 5.0 | 9.0 | 0.00 | 0.02 | 0.00 | 90 | 1017.2 |
| 20260507170045 | 62 | 244 | 5.0 | 7.0 | 0.00 | 0.02 | 0.00 | 89 | 1017.3 |
| 20260507164531 | 63 | 277 | 3.0 | 7.0 | 0.00 | 0.02 | 0.00 | 89 | 1017.2 |
| 20260507163027 | 63 | 41 | 2.0 | 6.0 | 0.00 | 0.02 | 0.00 | 90 | 1017.5 |
| 20260507161525 | 62 | 302 | 3.0 | 7.0 | 0.00 | 0.02 | 0.00 | 90 | 1017.4 |
| 20260507160024 | 62 | 264 | 3.0 | 8.0 | 0.00 | 0.02 | 0.00 | 91 | 1017.5 |
| 20260507154519 | 62 | 313 | 2.0 | 5.0 | 0.00 | 0.02 | 0.00 | 91 | 1017.6 |
| 20260507153017 | 61 | 286 | 1.0 | 5.0 | 0.00 | 0.02 | 0.00 | 92 | 1017.4 |
| 20260507151519 | 61 | 309 | 3.0 | 5.0 | 0.00 | 0.02 | 0.00 | 92 | 1017.3 |
| 20260507150017 | 61 | 284 | 5.0 | 7.0 | 0.00 | 0.02 | 0.00 | 92 | 1017.3 |
| 20260507144517 | 61 | 293 | 1.0 | 3.0 | 0.00 | 0.02 | 0.00 | 92 | 1017.2 |
| 20260507143016 | 60 | 40 | 2.0 | 4.0 | 0.00 | 0.02 | 0.00 | 92 | 1017.0 |
| 20260507141515 | 60 | 53 | 3.0 | 5.0 | 0.00 | 0.02 | 0.00 | 92 | 1016.9 |
| 20260507140015 | 60 | 46 | 3.0 | 4.0 | 0.00 | 0.02 | 0.00 | 92 | 1016.8 |
| 20260507134515 | 60 | 333 | 1.0 | 3.0 | 0.00 | 0.02 | 0.00 | 93 | 1016.7 |
| 20260507133012 | 60 | 333 | 0.0 | 0.0 | 0.00 | 0.02 | 0.00 | 93 | 1016.6 |
| 20260507131512 | 60 | 333 | 0.0 | 0.0 | 0.00 | 0.02 | 0.00 | 93 | 1016.6 |
| 20260507130011 | 60 | 333 | 0.0 | 0.0 | 0.00 | 0.02 | 0.00 | 92 | 1016.5 |
| 20260507124510 | 60 | 333 | 0.0 | 0.0 | 0.00 | 0.02 | 0.00 | 92 | 1016.4 |
| 20260507123012 | 60 | 333 | 0.0 | 0.0 | 0.00 | 0.02 | 0.00 | 92 | 1016.3 |
| 20260507121508 | 60 | 333 | 0.0 | 0.0 | 0.00 | 0.02 | 0.00 | 92 | 1016.4 |
| 20260507120008 | 60 | 333 | 0.0 | 0.0 | 0.00 | 0.02 | 0.00 | 92 | 1016.3 |
| 20260507114506 | 60 | 333 | 0.0 | 3.0 | 0.00 | 0.03 | 0.00 | 92 | 1016.3 |
| 20260507113006 | 60 | 333 | 1.0 | 3.0 | 0.00 | 0.03 | 0.00 | 92 | 1016.3 |
| 20260507111504 | 60 | 333 | 0.0 | 2.0 | 0.00 | 0.03 | 0.00 | 92 | 1016.4 |
| 20260507110003 | 60 | 333 | 2.0 | 4.0 | 0.00 | 0.03 | 0.00 | 92 | 1016.5 |
| 20260507104502 | 60 | 281 | 0.0 | 0.0 | 0.00 | 0.03 | 0.00 | 92 | 1016.6 |
| 20260507103129 | 60 | 281 | 0.0 | 0.0 | 0.00 | 0.03 | 0.00 | 92 | 1016.7 |
| 20260507101559 | 60 | 281 | 0.0 | 0.0 | 0.00 | 0.03 | 0.00 | 92 | 1016.8 |
| 20260507100108 | 60 | 281 | 0.0 | 0.0 | 0.00 | 0.03 | 0.00 | 92 | 1016.8 |
| 20260507094559 | 60 | 281 | 0.0 | 0.0 | 0.00 | 0.03 | 0.00 | 92 | 1016.9 |
| 20260507093059 | 60 | 281 | 0.0 | 0.0 | 0.00 | 0.03 | 0.00 | 92 | 1017.1 |
| 20260507091553 | 60 | 281 | 0.0 | 0.0 | 0.00 | 0.03 | 0.00 | 92 | 1017.1 |
| 20260507090058 | 60 | 281 | 0.0 | 0.0 | 0.00 | 0.03 | 0.00 | 91 | 1017.2 |
| 20260507084603 | 60 | 281 | 0.0 | 0.0 | 0.00 | 0.03 | 0.00 | 91 | 1017.4 |
| 20260507083051 | 60 | 281 | 0.0 | 0.0 | 0.00 | 0.03 | 0.00 | 92 | 1017.4 |
| 20260507081548 | 60 | 281 | 0.0 | 0.0 | 0.00 | 0.03 | 0.00 | 91 | 1017.5 |
| 20260507080053 | 60 | 281 | 0.0 | 0.0 | 0.00 | 0.03 | 0.00 | 91 | 1017.6 |
| 20260507074546 | 60 | 281 | 0.0 | 0.0 | 0.00 | 0.03 | 0.00 | 91 | 1017.8 |
| 20260507073045 | 60 | 281 | 0.0 | 0.0 | 0.00 | 0.03 | 0.00 | 90 | 1017.8 |
| 20260507071541 | 61 | 281 | 0.0 | 0.0 | 0.00 | 0.03 | 0.00 | 90 | 1017.9 |
| 20260507070059 | 61 | 280 | 0.0 | 0.0 | 0.00 | 0.03 | 0.00 | 90 | 1017.9 |
| 20260507064548 | 62 | 280 | 0.0 | 5.0 | 0.00 | 0.03 | 0.03 | 89 | 1018.1 |
| 20260507063038 | 62 | 290 | 4.0 | 8.0 | 0.00 | 0.03 | 0.03 | 90 | 1018.2 |
| 20260507061538 | 62 | 306 | 3.0 | 5.0 | 0.00 | 0.03 | 0.03 | 90 | 1018.1 |
| 20260507060037 | 62 | 296 | 4.0 | 8.0 | 0.00 | 0.03 | 0.03 | 91 | 1018.2 |
| 20260507054554 | 62 | 290 | 5.0 | 8.0 | 0.00 | 0.04 | 0.03 | 91 | 1018.2 |
| 20260507053036 | 62 | 287 | 2.0 | 8.0 | 0.01 | 0.04 | 0.03 | 92 | 1018.2 |
| 20260507051537 | 62 | 313 | 5.0 | 8.0 | 0.01 | 0.04 | 0.03 | 91 | 1018.2 |
| 20260507050042 | 62 | 318 | 5.0 | 8.0 | 0.01 | 0.04 | 0.03 | 92 | 1018.1 |
| 20260507044539 | 62 | 311 | 8.0 | 11.0 | 0.01 | 0.04 | 0.03 | 92 | 1018.1 |
| 20260507043034 | 62 | 311 | 6.0 | 10.0 | 0.00 | 0.03 | 0.02 | 92 | 1018.0 |
| 20260507041532 | 62 | 306 | 8.0 | 11.0 | 0.00 | 0.03 | 0.02 | 91 | 1017.8 |
| 20260507040038 | 62 | 304 | 7.0 | 10.0 | 0.00 | 0.03 | 0.02 | 91 | 1017.8 |
| 20260507034532 | 62 | 320 | 5.0 | 9.0 | 0.00 | 0.03 | 0.02 | 91 | 1017.6 |
| 20260507033030 | 62 | 307 | 5.0 | 9.0 | 0.00 | 0.03 | 0.02 | 91 | 1017.5 |
| 20260507031530 | 62 | 284 | 7.0 | 9.0 | 0.00 | 0.03 | 0.02 | 90 | 1017.3 |
| 20260507030031 | 62 | 299 | 5.0 | 10.0 | 0.00 | 0.03 | 0.02 | 90 | 1017.1 |
| 20260507024534 | 62 | 315 | 7.0 | 11.0 | 0.00 | 0.03 | 0.02 | 90 | 1017.3 |
| 20260507023027 | 62 | 298 | 7.0 | 12.0 | 0.00 | 0.03 | 0.02 | 90 | 1017.2 |
| 20260507021534 | 63 | 267 | 10.0 | 13.0 | 0.00 | 0.03 | 0.02 | 89 | 1017.3 |
| 20260507020026 | 63 | 275 | 9.0 | 13.0 | 0.00 | 0.03 | 0.02 | 89 | 1017.2 |
| 20260507014528 | 63 | 290 | 10.0 | 13.0 | 0.00 | 0.04 | 0.02 | 90 | 1017.1 |
| 20260507013024 | 63 | 284 | 10.0 | 14.0 | 0.00 | 0.04 | 0.02 | 90 | 1016.9 |
| 20260507011524 | 63 | 264 | 9.0 | 12.0 | 0.00 | 0.04 | 0.02 | 90 | 1016.8 |
| 20260507010030 | 63 | 257 | 9.0 | 12.0 | 0.00 | 0.04 | 0.02 | 90 | 1016.9 |
| 20260507004519 | 63 | 274 | 11.0 | 13.0 | 0.00 | 0.04 | 0.02 | 90 | 1017.1 |
| 20260507003015 | 63 | 259 | 11.0 | 14.0 | 0.00 | 0.04 | 0.02 | 90 | 1017.0 |
| 20260507001514 | 63 | 258 | 12.0 | 14.0 | 0.00 | 0.04 | 0.02 | 89 | 1016.9 |
| 20260507000008 | 63 | 262 | 11.0 | 14.0 | 0.00 | 0.04 | 0.02 | 89 | 1016.7 |
| 20260506234504 | 63 | 275 | 11.0 | 14.0 | 0.00 | 0.04 | 0.02 | 89 | 1016.7 |
| 20260506233100 | 63 | 271 | 10.0 | 13.0 | 0.00 | 0.04 | 0.02 | 89 | 1016.7 |
| 20260506231559 | 63 | 254 | 12.0 | 15.0 | 0.00 | 0.04 | 0.02 | 89 | 1016.8 |
| 20260506230104 | 62 | 273 | 11.0 | 16.0 | 0.00 | 0.04 | 0.02 | 88 | 1016.8 |
| 20260506224556 | 63 | 267 | 10.0 | 16.0 | 0.00 | 0.04 | 0.02 | 88 | 1016.8 |
| 20260506223055 | 63 | 270 | 13.0 | 17.0 | 0.00 | 0.04 | 0.02 | 89 | 1017.0 |
| 20260506221600 | 62 | 251 | 14.0 | 16.0 | 0.00 | 0.04 | 0.02 | 88 | 1017.1 |
| 20260506220050 | 62 | 265 | 12.0 | 18.0 | 0.00 | 0.04 | 0.02 | 87 | 1017.4 |
| 20260506214549 | 62 | 261 | 13.0 | 17.0 | 0.00 | 0.05 | 0.02 | 88 | 1017.4 |
| 20260506213054 | 62 | 268 | 13.0 | 18.0 | 0.00 | 0.05 | 0.02 | 87 | 1017.5 |
| 20260506211553 | 62 | 256 | 15.0 | 18.0 | 0.00 | 0.05 | 0.02 | 87 | 1017.6 |
| 20260506210048 | 62 | 261 | 14.0 | 18.0 | 0.00 | 0.05 | 0.02 | 86 | 1017.8 |
| 20260506204546 | 62 | 265 | 13.0 | 17.0 | 0.00 | 0.05 | 0.02 | 86 | 1017.8 |
| 20260506203044 | 62 | 250 | 15.0 | 17.0 | 0.00 | 0.05 | 0.02 | 86 | 1017.9 |
| 20260506201543 | 62 | 254 | 13.0 | 16.0 | 0.00 | 0.05 | 0.02 | 86 | 1017.9 |
| 20260506200045 | 62 | 240 | 10.0 | 13.0 | 0.00 | 0.05 | 0.02 | 87 | 1018.2 |
| 20260506194543 | 62 | 234 | 11.0 | 14.0 | 0.00 | 0.05 | 0.02 | 86 | 1018.4 |
| 20260506193047 | 62 | 234 | 13.0 | 15.0 | 0.00 | 0.05 | 0.02 | 86 | 1018.3 |
| 20260506191539 | 62 | 227 | 10.0 | 13.0 | 0.00 | 0.05 | 0.02 | 86 | 1018.7 |
| 20260506190036 | 61 | 238 | 10.0 | 12.0 | 0.00 | 0.05 | 0.02 | 85 | 1018.6 |